Colorado Springs, CO

3:52 PM MDT on August 16, 2017 (GMT -0600)
City Of Colorado Springs Municipal

Weather History for KCOS - December, 2013

Change the Weather History Date:

Saturday, December 14, 2013

  Actual Average Record
Temperature  
Mean Temperature 30 °F 29 °F  
Max Temperature 40 °F 42 °F 69 °F (1924)
Min Temperature 19 °F 17 °F -14 °F (1926)
Degree Days  
Heating Degree Days 35 36  
Month to date heating degree days 591 486  
Since 1 July heating degree days 1952 1967  
Cooling Degree Days 0 0  
Month to date cooling degree days 0 0  
Year to date cooling degree days 694 455  
Moisture  
Dew Point 13 °F    
Average Humidity 51    
Maximum Humidity 71    
Minimum Humidity 30    
Precipitation  
Precipitation 0.00 in 0.01 in 0.36 in (1988)
Month to date precipitation 0.07 0.17  
Year to date precipitation 19.22 16.37  
Snow  
Snow 0.00 in 0.20 in 7.30 in (1895)
Month to date snowfall 2.9 2.7  
Since 1 July snowfall 7.1 10.5  
Snow Depth 0.00 in    
Sea Level Pressure  
Sea Level Pressure 30.31 in    
Wind  
Wind Speed 6 mph (NW)    
Max Wind Speed 15 mph    
Max Gust Speed 19 mph    
Visibility 10 miles    
Events      
T = Trace of Precipitation, MM = Missing Value Source: NWS Daily Summary

Daily Weather History Graph

Daily Weather History Graph

Search for Another Location

Airport or City:

Trip Planner

Search our weather history database for the weather conditions in past years. The results will help you decide how hot, cold, wet, or windy it might be!

Date:

Astronomy

Dec. 14, 2013 Rise Set
Actual Time 7:09 AM MST 4:37 PM MST
Civil Twilight 6:39 AM MST 5:07 PM MST
Nautical Twilight 6:06 AM MST 5:41 PM MST
Astronomical Twilight 5:33 AM MST 6:13 PM MST
Moon 3:00 PM MST (12/14) 4:33 AM MST (12/14)
Length of Visible Light 10h 28m
Length of Day
9h 28m
Waxing Gibbous, 94% of the Moon is Illuminated
Dec 14
Waxing Gibbous
Dec 17
Full
Dec 25
Last Quarter
Jan 1
New
Jan 7
First Quarter

Hourly Weather History & Observations

Time (MST) Temp. Windchill Dew Point Humidity Pressure Visibility Wind Dir Wind Speed Gust Speed Precip Events Conditions
12:54 AM 30.0 °F 21.7 °F 14.0 °F 51% 30.15 in 10.0 mi NNW 9.2 mph - N/A   Scattered Clouds
1:54 AM 26.1 °F 20.5 °F 14.0 °F 60% 30.19 in 10.0 mi North 4.6 mph - N/A   Clear
2:54 AM 25.0 °F 19.3 °F 15.1 °F 66% 30.23 in 10.0 mi NNE 4.6 mph - N/A   Partly Cloudy
3:54 AM 26.1 °F 19.4 °F 16.0 °F 66% 30.25 in 10.0 mi NW 5.8 mph - N/A   Partly Cloudy
4:54 AM 24.1 °F 17.0 °F 15.1 °F 69% 30.30 in 10.0 mi NW 5.8 mph - N/A   Clear
5:54 AM 23.0 °F 13.1 °F 14.0 °F 68% 30.33 in 10.0 mi WNW 9.2 mph - N/A   Clear
6:54 AM 21.9 °F 11.0 °F 14.0 °F 72% 30.37 in 10.0 mi WNW 10.4 mph - N/A   Partly Cloudy
7:54 AM 25.0 °F 15.5 °F 15.1 °F 66% 30.40 in 10.0 mi WNW 9.2 mph - N/A   Clear
8:54 AM 30.0 °F 24.1 °F 16.0 °F 56% 30.40 in 10.0 mi West 5.8 mph - N/A   Clear
9:54 AM 33.1 °F 27.7 °F 16.0 °F 50% 30.37 in 10.0 mi SW 5.8 mph - N/A   Clear
10:54 AM 36.0 °F - 12.0 °F 37% 30.35 in 10.0 mi Calm Calm - N/A   Clear
11:54 AM 37.9 °F 35.5 °F 10.9 °F 33% 30.31 in 10.0 mi SSE 3.5 mph - N/A   Clear
12:54 PM 39.9 °F 35.8 °F 12.0 °F 32% 30.29 in 10.0 mi SSE 5.8 mph 17.3 mph N/A   Clear
1:54 PM 39.9 °F 33.9 °F 12.0 °F 32% 30.28 in 10.0 mi South 9.2 mph - N/A   Partly Cloudy
2:54 PM 39.0 °F 34.8 °F 10.9 °F 32% 30.29 in 10.0 mi SSE 5.8 mph - N/A   Partly Cloudy
3:54 PM 37.0 °F 31.0 °F 10.9 °F 34% 30.29 in 10.0 mi SSE 8.1 mph - N/A   Partly Cloudy
4:54 PM 33.1 °F 26.9 °F 10.9 °F 40% 30.31 in 10.0 mi SSE 6.9 mph - N/A   Partly Cloudy
5:54 PM 30.0 °F 24.1 °F 10.0 °F 43% 30.35 in 10.0 mi SE 5.8 mph - N/A   Partly Cloudy
6:54 PM 28.9 °F - 10.0 °F 45% 30.36 in 10.0 mi Calm Calm - N/A   Partly Cloudy
7:54 PM 21.9 °F - 10.9 °F 63% 30.39 in 10.0 mi Calm Calm - N/A   Scattered Clouds
8:54 PM 24.1 °F 18.2 °F 10.0 °F 55% 30.35 in 10.0 mi North 4.6 mph - N/A   Mostly Cloudy
9:54 PM 24.1 °F 19.7 °F 10.9 °F 57% 30.32 in 10.0 mi North 3.5 mph - N/A   Mostly Cloudy
10:54 PM 21.0 °F 11.4 °F 10.9 °F 65% 30.31 in 10.0 mi NNE 8.1 mph - N/A   Mostly Cloudy
11:54 PM 21.0 °F 12.4 °F 10.9 °F 65% 30.29 in 10.0 mi NNE 6.9 mph - N/A   Partly Cloudy